Weather in Okhli

Russia / Republic of Dagestan     42°33′19″N   47°12′33″E
temp.,
°C
wind,
m/s
gust,
m/s
humid.,
%
clouds,
%
prec.,
mm/h
press.,
hPa
HPBL,
m
1 march, mon
mon100:00−1ne1198100 2.1 1018119
03:00−2ne2298100 4.6 1020171
06:00−3nne2396100 2.3 1022230
09:00−3ne2295100 4.4 1023301
12:00−3ene2295100 1.8 1024341
15:00−2ene2294100 2.6 1024330
18:00−4ene1197100 0.4 102654
21:00−6ese119599 0.5 102821
2 march, tue
tue200:00−6sse1193100 0.0 102841
03:00−6sw1189100 0.0 102825
06:00−6sw118997 0.0 102922
09:00−4ne008498 0.0 1029268
12:00−2ene1185100 0.0 1027465
15:00−2ene218499 0.1 1026405
18:00−3ese008998 0.1 102635
21:00−4sw118656 0.1 102621
3 march, wed
wed300:00−5sw22770 0.0 102423
03:00−6sw22630 0.0 102224
06:00−6sw22600 0.0 102121
09:00−3sw11510 0.0 1019166
12:000ene11541 0.0 1017455
15:000ne22653 0.0 1016581
18:00−3nne229298 0.1 1019109
21:00−3sw118799 0.1 102138
4 march, thu
thu400:00−4wsw1294100 0.5 1022149
03:00−5wsw229399 1.7 1024198
06:00−6wsw228837 0.0 102653
09:00−3wsw126418 0.0 1028450
12:00−1ene21612 0.0 1027779
15:00−2ene227818 0.1 1026466
18:00−3se129242 0.1 1026141
21:00−3sw227928 0.1 102723
5 march, fri
fri500:00−4sw226219 0.0 102432
03:00−4sw225539 0.0 102225
06:00−4sw12544 0.0 102222
09:00−1w124343 0.0 1022241
12:00+1n224618 0.0 1020549
15:00+2nne22569 0.0 1020526
18:00−2sw01770 0.0 102121
21:00−1sw22680 0.0 102221